Mobile, AL

3:41 AM CST on February 24, 2017 (GMT -0600)
Mobile Downtown

Weather History for KBFM - April, 2014

Change the Weather History Date:

Thursday, April 3, 2014

  Actual Average Record
Temperature  
Mean Temperature 70 °F -  
Max Temperature 75 °F 71 °F 88 °F (2006)
Min Temperature 66 °F 54 °F 41 °F (2005)
Cooling Degree Days 6    
Growing Degree Days 20 (Base 50)    
Moisture  
Dew Point 65 °F    
Average Humidity 87    
Maximum Humidity 96    
Minimum Humidity 69    
Precipitation  
Precipitation 0.00 in - - ()
Sea Level Pressure  
Sea Level Pressure 30.04 in    
Wind  
Wind Speed 9 mph (SSE)    
Max Wind Speed 14 mph    
Max Gust Speed 23 mph    
Visibility 10 miles    
Events      
Averages and records for this station are not official NWS values.
T = Trace of Precipitation, MM = Missing Value Source: NWS Daily Summary

Daily Weather History Graph

Daily Weather History Graph

Search for Another Location

Airport or City:

Trip Planner

Search our weather history database for the weather conditions in past years. The results will help you decide how hot, cold, wet, or windy it might be!

Date:

Astronomy

Apr. 03, 2014 Rise Set
Actual Time 6:38 AM CDT 7:12 PM CDT
Civil Twilight 6:14 AM CDT 7:36 PM CDT
Nautical Twilight 5:46 AM CDT 8:05 PM CDT
Astronomical Twilight 5:17 AM CDT 8:34 PM CDT
Moon 9:21 AM CDT (4/3) 11:17 PM CDT (4/3)
Length of Visible Light 13h 22m
Length of Day
12h 33m
Waxing Crescent, 17% of the Moon is Illuminated
Apr 3
Waxing Crescent
Apr 7
First Quarter
Apr 15
Full
Apr 22
Last Quarter
Apr 29
New

Hourly Weather History & Observations

Time (CDT) Temp. Dew Point Humidity Pressure Visibility Wind Dir Wind Speed Gust Speed Precip Events Conditions
12:25 AM 66.0 °F 64.9 °F 96% 30.08 in 10.0 mi SSE 8.1 mph - N/A   Overcast
12:53 AM 66.0 °F 64.0 °F 93% 30.07 in 10.0 mi South 8.1 mph - N/A   Overcast
1:19 AM 66.0 °F 64.0 °F 93% 30.07 in 10.0 mi SSE 8.1 mph - N/A   Overcast
1:31 AM 66.9 °F 64.9 °F 93% 30.07 in 10.0 mi South 8.1 mph - N/A   Overcast
1:53 AM 66.0 °F 64.0 °F 93% 30.06 in 10.0 mi South 6.9 mph - N/A   Overcast
2:53 AM 66.0 °F 64.9 °F 96% 30.04 in 10.0 mi SSE 6.9 mph - N/A   Overcast
3:16 AM 66.0 °F 64.9 °F 96% 30.03 in 10.0 mi SSE 10.4 mph - N/A   Overcast
3:53 AM 66.9 °F 64.9 °F 93% 30.03 in 10.0 mi South 9.2 mph - N/A   Mostly Cloudy
4:53 AM 66.9 °F 64.9 °F 93% 30.04 in 9.0 mi SSE 8.1 mph - N/A   Overcast
5:53 AM 66.9 °F 64.9 °F 93% 30.04 in 9.0 mi SSE 6.9 mph - N/A   Overcast
6:53 AM 66.9 °F 64.9 °F 93% 30.04 in 8.0 mi SSE 8.1 mph - N/A   Mostly Cloudy
7:53 AM 68.0 °F 66.0 °F 93% 30.06 in 9.0 mi South 9.2 mph - N/A   Mostly Cloudy
8:07 AM 68.0 °F 66.0 °F 93% 30.06 in 8.0 mi SSE 10.4 mph - N/A   Mostly Cloudy
8:53 AM 69.1 °F 66.0 °F 90% 30.06 in 9.0 mi SSE 9.2 mph - N/A   Mostly Cloudy
9:14 AM 70.0 °F 66.0 °F 87% 30.06 in 10.0 mi South 12.7 mph 21.9 mph N/A   Scattered Clouds
9:53 AM 71.1 °F 66.0 °F 84% 30.06 in 10.0 mi SSE 13.8 mph 19.6 mph N/A   Scattered Clouds
10:53 AM 72.0 °F 64.9 °F 78% 30.08 in 10.0 mi South 11.5 mph 23.0 mph N/A   Scattered Clouds
11:53 AM 73.0 °F 64.9 °F 76% 30.07 in 10.0 mi SSE 12.7 mph 20.7 mph N/A   Mostly Cloudy
12:53 PM 73.9 °F 64.0 °F 71% 30.05 in 10.0 mi South 12.7 mph 19.6 mph N/A   Mostly Cloudy
1:53 PM 73.9 °F 64.9 °F 73% 30.04 in 10.0 mi SSE 12.7 mph - N/A   Mostly Cloudy
2:53 PM 73.0 °F 64.9 °F 76% 30.03 in 10.0 mi South 9.2 mph - N/A   Mostly Cloudy
3:53 PM 75.9 °F 64.9 °F 69% 30.01 in 10.0 mi SSE 11.5 mph - N/A   Mostly Cloudy
4:53 PM 73.0 °F 64.9 °F 76% 30.01 in 10.0 mi SSE 11.5 mph - N/A   Mostly Cloudy
5:53 PM 71.1 °F 64.9 °F 81% 30.01 in 10.0 mi South 6.9 mph - N/A   Mostly Cloudy
6:53 PM 70.0 °F 64.9 °F 84% 30.01 in 10.0 mi South 8.1 mph - N/A   Mostly Cloudy
7:53 PM 69.1 °F 64.9 °F 87% 30.01 in 10.0 mi SSE 8.1 mph - N/A   Overcast
8:53 PM 69.1 °F 64.9 °F 87% 29.99 in 10.0 mi SSE 9.2 mph - N/A   Overcast
10:53 PM 68.0 °F 64.9 °F 90% 29.98 in 10.0 mi South 9.2 mph - N/A   Overcast
11:53 PM 68.0 °F 64.9 °F 90% 29.97 in 10.0 mi SSE 11.5 mph - N/A   Overcast